Newport News, VA

12:25 AM EST on December 08, 2019 (GMT -0500)
Newport News-Williamsburg International

Weather History for KPHF - November, 2019

Change the Weather History Date:

Tuesday, November 12, 2019

  Actual Average Record
Temperature  
Mean Temperature 46 °F -  
Max Temperature 57 °F 60 °F 79 °F (1949)
Min Temperature 33 °F 43 °F 28 °F (1996)
Degree Days  
Heating Degree Days 20    
Moisture  
Dew Point 35 °F    
Average Humidity 74    
Maximum Humidity 89    
Minimum Humidity 51    
Precipitation  
Precipitation 0.53 in - - ()
Sea Level Pressure  
Sea Level Pressure 29.99 in    
Wind  
Wind Speed 11 mph ()    
Max Wind Speed 18 mph    
Max Gust Speed 29 mph    
Visibility 6.5 miles    
Events Rain , Snow    
Averages and records for this station are not official NWS values.
T = Trace of Precipitation, MM = Missing Value Source: Averaged Metar Reports

Daily Weather History Graph

Daily Weather History Graph

Search for Another Location

Airport or City:

Astronomy

Nov. 12, 2019 Rise Set
Actual Time 6:41 AM EST 4:58 PM EST
Civil Twilight 6:13 AM EST 5:25 PM EST
Nautical Twilight 5:42 AM EST 5:57 PM EST
Astronomical Twilight 5:11 AM EST 6:27 PM EST
Moon 5:23 PM EST (11/12) 6:31 AM EST (11/12)
Length of Visible Light 11h 12m
Length of Day
10h 16m
Full, 100% of the Moon is Illuminated
Nov 12
Full
Nov 19
Last Quarter
Nov 26
New
Dec 4
First Quarter
Dec 12
Full

Hourly Weather History & Observations

Time (EST) Temp. Windchill Dew Point Humidity Pressure Visibility Wind Dir Wind Speed Gust Speed Precip Events Conditions
12:54 AM 57.0 °F - 39.0 °F 51% 29.91 in 10.0 mi SW 17.3 mph - N/A   Clear
1:54 AM 55.9 °F - 39.0 °F 53% 29.91 in 10.0 mi SW 17.3 mph - N/A   Clear
2:54 AM 57.0 °F - 39.9 °F 53% 29.89 in 10.0 mi SW 15.0 mph - N/A   Clear
3:54 AM 55.9 °F - 39.9 °F 55% 29.86 in 10.0 mi SW 13.8 mph - N/A   Clear
4:54 AM 57.9 °F - 39.9 °F 51% 29.86 in 10.0 mi SW 12.7 mph - N/A   Clear
5:54 AM 57.0 °F - 41.0 °F 55% 29.86 in 10.0 mi SW 13.8 mph - N/A   Mostly Cloudy
6:54 AM 57.0 °F - 41.0 °F 55% 29.86 in 10.0 mi SW 9.2 mph - N/A   Overcast
7:54 AM 55.0 °F - 45.0 °F 69% 29.86 in 10.0 mi WSW 10.4 mph - 0.00 in   Overcast
8:54 AM 55.0 °F - 46.0 °F 72% 29.89 in 10.0 mi West 10.4 mph - 0.01 in Rain Light Rain
9:54 AM 53.1 °F - 48.0 °F 83% 29.90 in 4.0 mi WNW 4.6 mph - 0.05 in Rain Light Rain
10:06 AM 53.1 °F - 48.0 °F 83% 29.90 in 2.5 mi WNW 8.1 mph - 0.03 in Rain Rain
10:37 AM 52.0 °F - 48.0 °F 86% 29.89 in 4.0 mi NW 9.2 mph - 0.08 in Rain Light Rain
10:50 AM 53.6 °F - 48.2 °F 82% 29.90 in 1.8 mi WNW 9.2 mph - 0.12 in Rain Heavy Rain
11:08 AM 48.9 °F - 45.0 °F 86% 29.93 in 3.0 mi North 16.1 mph 28.8 mph 0.04 in Rain Rain
11:54 AM 43.0 °F 34.8 °F 37.0 °F 80% 29.96 in 5.0 mi North 18.4 mph 28.8 mph 0.12 in Rain Rain
12:29 PM 42.1 °F 35.2 °F 37.0 °F 82% 29.96 in 3.0 mi North 12.7 mph 21.9 mph 0.07 in Rain Rain
12:54 PM 41.0 °F 34.7 °F 36.0 °F 82% 29.99 in 4.0 mi NNW 10.4 mph 23.0 mph 0.13 in Rain Rain
1:04 PM 41.0 °F 33.9 °F 36.0 °F 82% 29.98 in 4.0 mi North 12.7 mph 19.6 mph 0.02 in Rain Rain
1:54 PM 39.0 °F 30.6 °F 34.0 °F 82% 29.99 in 9.0 mi NNW 15.0 mph 20.7 mph 0.06 in Rain Light Rain
2:44 PM 37.0 °F 29.3 °F 30.9 °F 79% 30.00 in 5.0 mi North 11.5 mph 23.0 mph 0.09 in Rain Rain
2:54 PM 36.0 °F 28.0 °F 30.9 °F 82% 30.01 in 5.0 mi North 11.5 mph 21.9 mph 0.10 in Rain Rain
3:04 PM 35.1 °F 27.4 °F 30.9 °F 85% 30.01 in 3.0 mi North 10.4 mph - 0.01 in Rain Rain
3:38 PM 34.0 °F 28.8 °F 30.9 °F 89% 30.04 in 1.2 mi North 5.8 mph - 0.02 in Snow Light Snow
3:54 PM 34.0 °F 29.8 °F 30.9 °F 89% 30.04 in 0.8 mi NNE 4.6 mph - 0.03 in Snow Light Snow
4:06 PM 34.0 °F 31.0 °F 30.9 °F 89% 30.04 in 1.8 mi NNE 3.5 mph - 0.00 in Snow Light Snow
4:10 PM 34.0 °F 28.0 °F 30.9 °F 89% 30.05 in 2.0 mi Variable 6.9 mph - 0.00 in Snow Light Snow
4:32 PM 34.0 °F 28.0 °F 30.0 °F 85% 30.05 in 1.8 mi NE 6.9 mph 16.1 mph 0.01 in Snow Light Snow
4:42 PM 34.0 °F 28.8 °F 30.0 °F 85% 30.05 in 3.0 mi NNE 5.8 mph - 0.01 in Snow Light Snow
4:54 PM 35.1 °F 31.0 °F 30.0 °F 82% 30.05 in 9.0 mi NNE 4.6 mph - 0.02 in   Overcast
5:54 PM 35.1 °F 30.1 °F 30.9 °F 85% 30.09 in 10.0 mi North 5.8 mph - 0.01 in   Overcast
6:54 PM 36.0 °F 32.1 °F 30.9 °F 82% 30.10 in 10.0 mi NNW 4.6 mph - N/A   Overcast
7:54 PM 37.0 °F - 27.0 °F 67% 30.14 in 10.0 mi North - - N/A   Clear
8:54 PM 35.1 °F 27.4 °F 23.0 °F 61% 30.17 in 10.0 mi NNW 10.4 mph 18.4 mph N/A   Scattered Clouds
9:54 PM 35.1 °F 25.9 °F 21.0 °F 57% 30.20 in 10.0 mi NNW 13.8 mph 21.9 mph N/A   Mostly Cloudy
10:54 PM 34.0 °F 24.6 °F 21.0 °F 59% 30.22 in 10.0 mi NNW 13.8 mph 24.2 mph N/A   Clear
11:54 PM 33.1 °F 24.4 °F 19.9 °F 59% 30.24 in 10.0 mi NNW 11.5 mph 23.0 mph N/A   Clear